(°C)
(°C)
-2°
-2°
-3°
-3°
-2°
-2°
-1°
NNO
NNO
NNO
NNO
NNO
NNO
NNO
(km/h)
16-26
15-26
14-25
14-26
13-26
13-25
12-25
(mm)
0
0
0.7
0.7
0.7
0.7
0.7
(%)
84
84
99
99
99
99
99

Elevación del sol

/ -18.3°
sun-icon
UV 1
05:37
19:34
Creciente (37°)
07:06
23:20

METAR a 52.17°N 20.97°E (EPWA)

Hora Condiciones Temperatura/
Punto de condensación
Viento Visibilidad Tiempo Nubes Presión Cambiar Bruto
IFR 3°C / 2°C 330º 10kt >10km - Broken Clouds 800ft 1017 No Significant change EPWA 150100Z 33010KT 9999 BKN008 03/02 Q1017 NOSIG
IFR 3°C / 2°C 340º 12kt >10km Light Rain Broken Clouds 800ft 1017 No Significant change EPWA 150030Z 34012KT 9999 -RA BKN008 03/02 Q1017 NOSIG
IFR 3°C / 2°C 340º 10kt >10km Light Rain Broken Clouds 700ft 1018 No Significant change EPWA 150000Z 34010KT 9999 -RA BKN007 03/02 Q1018 NOSIG
IFR 3°C / 2°C 330º 12kt >10km Light Rain Broken Clouds 700ft 1018 No Significant change EPWA 142330Z 33012KT 9999 -RA BKN007 03/02 Q1018 NOSIG
IFR 3°C / 2°C 340º 11kt >10km - Broken Clouds 600ft 1018 Temporary: Broken Clouds 500ft. EPWA 142300Z 34011KT 9999 BKN006 03/02 Q1018 TEMPO BKN005
IFR 3°C / 2°C 330º 10kt >10km Light Rain Broken Clouds 600ft 1018 Temporary: Broken Clouds 500ft. EPWA 142230Z 33010KT 9999 -RA BKN006 03/02 Q1018 TEMPO BKN005
IFR 2°C / 2°C 320º 9kt >10km Light Rain Broken Clouds 600ft 1018 Temporary: Rain Snow . Broken Clouds 500ft. EPWA 142200Z 32009KT 9999 -RA BKN006 02/02 Q1018 TEMPO RASN BKN005
IFR 2°C / 1°C 320º 10kt >10km - Broken Clouds 600ft 1019 Temporary: Rain Snow . Broken Clouds 500ft. EPWA 142130Z 32010KT 9999 BKN006 02/01 Q1019 TEMPO RASN BKN005
IFR 2°C / 1°C 320º 10kt >10km Light Rain Broken Clouds 600ft 1019 Temporary: Rain Snow . Broken Clouds 500ft. EPWA 142100Z 32010KT 9999 -RA BKN006 02/01 Q1019 TEMPO RASN BKN005
IFR 2°C / 1°C 320º 11kt >10km Light Rain Broken Clouds 600ft 1019 Temporary: Rain Snow . Broken Clouds 500ft. EPWA 142030Z 32011KT 9999 -RA BKN006 02/01 Q1019 TEMPO RASN BKN005
IFR 2°C / 1°C 320º 10kt >10km Light Rain Broken Clouds 600ft 1019 Temporary: Rain Snow . Broken Clouds 500ft. EPWA 142000Z 32010KT 9999 -RA BKN006 02/01 Q1019 TEMPO RASN BKN005
IFR 2°C / 1°C 330º variable 300º to 010º 10kt >10km Light Rain Broken Clouds 700ft 1019 No Significant change EPWA 141930Z 33010KT 300V010 9999 -RA BKN007 02/01 Q1019 NOSIG
IFR 2°C / 1°C 330º 9kt >10km Light Rain Broken Clouds 800ft 1019 No Significant change EPWA 141900Z 33009KT 9999 -RA BKN008 02/01 Q1019 NOSIG
IFR 2°C / 1°C 330º 10kt >10km Light Rain Broken Clouds 800ft 1020 No Significant change EPWA 141830Z 33010KT 9999 -RA BKN008 02/01 Q1020 NOSIG
IFR 2°C / 2°C 330º 9kt >10km Light Rain Broken Clouds 800ft 1020 No Significant change EPWA 141800Z 33009KT 9999 -RA BKN008 02/02 Q1020 NOSIG
IFR 2°C / 1°C 330º 9kt 6000m Light Rain Light Snow Broken Clouds 800ft 1019 No Significant change EPWA 141730Z 33009KT 6000 -RASN BKN008 02/01 Q1019 NOSIG
IFR 2°C / 1°C 320º 10kt 6000m Light Rain Light Snow Broken Clouds 700ft 1019 Temporary: Visibility 4000. Rain Snow . Broken Clouds 500ft. EPWA 141700Z 32010KT 6000 -RASN BKN007 02/01 Q1019 TEMPO 4000 RASN BKN005
IFR 2°C / 1°C 330º 8kt 4000m Light Rain Light Snow Mist Broken Clouds 700ft 1020 No Significant change EPWA 141630Z 33008KT 4000 -RASN BR BKN007 02/01 Q1020 NOSIG
IFR 2°C / 1°C 320º 9kt 4000m Light Rain Light Snow Mist Broken Clouds 600ft 1020 No Significant change EPWA 141600Z 32009KT 4000 -RASN BR BKN006 02/01 Q1020 NOSIG
IFR 2°C / 1°C 340º 7kt 4000m Light Rain Light Snow Mist Broken Clouds 600ft 1020 No Significant change EPWA 141530Z 34007KT 4000 -RASN BR BKN006 02/01 Q1020 NOSIG
IFR 2°C / 1°C 330º 8kt 4000m Light Rain Light Snow Mist Broken Clouds 500ft 1020 No Significant change EPWA 141500Z 33008KT 4000 -RASN BR BKN005 02/01 Q1020 NOSIG
IFR 2°C / 1°C 340º 9kt 3800m Light Rain Light Snow Mist Broken Clouds 600ft 1020 No Significant change EPWA 141430Z 34009KT 3800 -RASN BR BKN006 02/01 Q1020 NOSIG
IFR 2°C / 1°C 340º 9kt 3800m Light Rain Light Snow Mist Broken Clouds 500ft 1020 No Significant change EPWA 141400Z 34009KT 3800 -RASN BR BKN005 02/01 Q1020 NOSIG
IFR 1°C / 1°C 340º 9kt 3500m Light Snow Light Rain Mist Broken Clouds 600ft 1020 No Significant change EPWA 141330Z 34009KT 3500 -SNRA BR BKN006 01/01 Q1020 RESNRA NOSIG

IFR

3°C / 2°C

[Más]
Viento 330º 10kt
Visibilidad >10km
Tiempo -
Nubes Broken Clouds 800ft
Presión 1017
Cambiar No Significant change
Bruto EPWA 150100Z 33010KT 9999 BKN008 03/02 Q1017 NOSIG

IFR

3°C / 2°C

[Más]
Viento 340º 12kt
Visibilidad >10km
Tiempo Light Rain
Nubes Broken Clouds 800ft
Presión 1017
Cambiar No Significant change
Bruto EPWA 150030Z 34012KT 9999 -RA BKN008 03/02 Q1017 NOSIG

IFR

3°C / 2°C

[Más]
Viento 340º 10kt
Visibilidad >10km
Tiempo Light Rain
Nubes Broken Clouds 700ft
Presión 1018
Cambiar No Significant change
Bruto EPWA 150000Z 34010KT 9999 -RA BKN007 03/02 Q1018 NOSIG

IFR

3°C / 2°C

[Más]
Viento 330º 12kt
Visibilidad >10km
Tiempo Light Rain
Nubes Broken Clouds 700ft
Presión 1018
Cambiar No Significant change
Bruto EPWA 142330Z 33012KT 9999 -RA BKN007 03/02 Q1018 NOSIG

IFR

3°C / 2°C

[Más]
Viento 340º 11kt
Visibilidad >10km
Tiempo -
Nubes Broken Clouds 600ft
Presión 1018
Cambiar Temporary: Broken Clouds 500ft.
Bruto EPWA 142300Z 34011KT 9999 BKN006 03/02 Q1018 TEMPO BKN005

IFR

3°C / 2°C

[Más]
Viento 330º 10kt
Visibilidad >10km
Tiempo Light Rain
Nubes Broken Clouds 600ft
Presión 1018
Cambiar Temporary: Broken Clouds 500ft.
Bruto EPWA 142230Z 33010KT 9999 -RA BKN006 03/02 Q1018 TEMPO BKN005

IFR

2°C / 2°C

[Más]
Viento 320º 9kt
Visibilidad >10km
Tiempo Light Rain
Nubes Broken Clouds 600ft
Presión 1018
Cambiar Temporary: Rain Snow . Broken Clouds 500ft.
Bruto EPWA 142200Z 32009KT 9999 -RA BKN006 02/02 Q1018 TEMPO RASN BKN005

IFR

2°C / 1°C

[Más]
Viento 320º 10kt
Visibilidad >10km
Tiempo -
Nubes Broken Clouds 600ft
Presión 1019
Cambiar Temporary: Rain Snow . Broken Clouds 500ft.
Bruto EPWA 142130Z 32010KT 9999 BKN006 02/01 Q1019 TEMPO RASN BKN005

IFR

2°C / 1°C

[Más]
Viento 320º 10kt
Visibilidad >10km
Tiempo Light Rain
Nubes Broken Clouds 600ft
Presión 1019
Cambiar Temporary: Rain Snow . Broken Clouds 500ft.
Bruto EPWA 142100Z 32010KT 9999 -RA BKN006 02/01 Q1019 TEMPO RASN BKN005

IFR

2°C / 1°C

[Más]
Viento 320º 11kt
Visibilidad >10km
Tiempo Light Rain
Nubes Broken Clouds 600ft
Presión 1019
Cambiar Temporary: Rain Snow . Broken Clouds 500ft.
Bruto EPWA 142030Z 32011KT 9999 -RA BKN006 02/01 Q1019 TEMPO RASN BKN005

IFR

2°C / 1°C

[Más]
Viento 320º 10kt
Visibilidad >10km
Tiempo Light Rain
Nubes Broken Clouds 600ft
Presión 1019
Cambiar Temporary: Rain Snow . Broken Clouds 500ft.
Bruto EPWA 142000Z 32010KT 9999 -RA BKN006 02/01 Q1019 TEMPO RASN BKN005

IFR

2°C / 1°C

[Más]
Viento 330º variable 300º to 010º 10kt
Visibilidad >10km
Tiempo Light Rain
Nubes Broken Clouds 700ft
Presión 1019
Cambiar No Significant change
Bruto EPWA 141930Z 33010KT 300V010 9999 -RA BKN007 02/01 Q1019 NOSIG

IFR

2°C / 1°C

[Más]
Viento 330º 9kt
Visibilidad >10km
Tiempo Light Rain
Nubes Broken Clouds 800ft
Presión 1019
Cambiar No Significant change
Bruto EPWA 141900Z 33009KT 9999 -RA BKN008 02/01 Q1019 NOSIG

IFR

2°C / 1°C

[Más]
Viento 330º 10kt
Visibilidad >10km
Tiempo Light Rain
Nubes Broken Clouds 800ft
Presión 1020
Cambiar No Significant change
Bruto EPWA 141830Z 33010KT 9999 -RA BKN008 02/01 Q1020 NOSIG

IFR

2°C / 2°C

[Más]
Viento 330º 9kt
Visibilidad >10km
Tiempo Light Rain
Nubes Broken Clouds 800ft
Presión 1020
Cambiar No Significant change
Bruto EPWA 141800Z 33009KT 9999 -RA BKN008 02/02 Q1020 NOSIG

IFR

2°C / 1°C

[Más]
Viento 330º 9kt
Visibilidad 6000m
Tiempo Light Rain Light Snow
Nubes Broken Clouds 800ft
Presión 1019
Cambiar No Significant change
Bruto EPWA 141730Z 33009KT 6000 -RASN BKN008 02/01 Q1019 NOSIG

IFR

2°C / 1°C

[Más]
Viento 320º 10kt
Visibilidad 6000m
Tiempo Light Rain Light Snow
Nubes Broken Clouds 700ft
Presión 1019
Cambiar Temporary: Visibility 4000. Rain Snow . Broken Clouds 500ft.
Bruto EPWA 141700Z 32010KT 6000 -RASN BKN007 02/01 Q1019 TEMPO 4000 RASN BKN005

IFR

2°C / 1°C

[Más]
Viento 330º 8kt
Visibilidad 4000m
Tiempo Light Rain Light Snow Mist
Nubes Broken Clouds 700ft
Presión 1020
Cambiar No Significant change
Bruto EPWA 141630Z 33008KT 4000 -RASN BR BKN007 02/01 Q1020 NOSIG

IFR

2°C / 1°C

[Más]
Viento 320º 9kt
Visibilidad 4000m
Tiempo Light Rain Light Snow Mist
Nubes Broken Clouds 600ft
Presión 1020
Cambiar No Significant change
Bruto EPWA 141600Z 32009KT 4000 -RASN BR BKN006 02/01 Q1020 NOSIG

IFR

2°C / 1°C

[Más]
Viento 340º 7kt
Visibilidad 4000m
Tiempo Light Rain Light Snow Mist
Nubes Broken Clouds 600ft
Presión 1020
Cambiar No Significant change
Bruto EPWA 141530Z 34007KT 4000 -RASN BR BKN006 02/01 Q1020 NOSIG

IFR

2°C / 1°C

[Más]
Viento 330º 8kt
Visibilidad 4000m
Tiempo Light Rain Light Snow Mist
Nubes Broken Clouds 500ft
Presión 1020
Cambiar No Significant change
Bruto EPWA 141500Z 33008KT 4000 -RASN BR BKN005 02/01 Q1020 NOSIG

IFR

2°C / 1°C

[Más]
Viento 340º 9kt
Visibilidad 3800m
Tiempo Light Rain Light Snow Mist
Nubes Broken Clouds 600ft
Presión 1020
Cambiar No Significant change
Bruto EPWA 141430Z 34009KT 3800 -RASN BR BKN006 02/01 Q1020 NOSIG

IFR

2°C / 1°C

[Más]
Viento 340º 9kt
Visibilidad 3800m
Tiempo Light Rain Light Snow Mist
Nubes Broken Clouds 500ft
Presión 1020
Cambiar No Significant change
Bruto EPWA 141400Z 34009KT 3800 -RASN BR BKN005 02/01 Q1020 NOSIG

IFR

1°C / 1°C

[Más]
Viento 340º 9kt
Visibilidad 3500m
Tiempo Light Snow Light Rain Mist
Nubes Broken Clouds 600ft
Presión 1020
Cambiar No Significant change
Bruto EPWA 141330Z 34009KT 3500 -SNRA BR BKN006 01/01 Q1020 RESNRA NOSIG

TAF a 52.17°N 20.97°E (EPWA)

From till


From till Wind 340º 11kt. Visibility 9000m. Light Rain . Broken Clouds 600ft.
With 40% probability, Temporarly from till Visibility 3500m. Light Rain Light Snow Mist .
Temporarly from till Broken Clouds 400ft.
With 40% probability, Temporarly from till Visibility 4000m. Rain Mist .
With 40% probability, from till Broken Clouds 1000ft.
Temporarly from till Visibility 2500m. Mist . Broken Clouds 400ft.

Bruto: TAF EPWA 142330Z 1500/1524 34011KT 9000 -RA BKN006 TEMPO 1500/1510 BKN004 PROB40 TEMPO 1500/1503 3500 -RASN BR PROB40 TEMPO 1503/1508 4000 RA BR PROB40 1512/1516 BKN010 TEMPO 1517/1524 2500 BR BKN004

Imágenes actuales de satélite y lluvia para 52.17°N 20.97°E

  • Precipitación:
  • <1 mm
  • 1-2 mm
  • 2-5 mm
  • >5 mm

El marcador de lugar se coloca en 52.17°N 20.97°E. [Más]

La imagen de satélite en tiempo real se aprovecha de la combinación de bandas de la luz visible y de la luz infrarrojo. Como se puede detectar cambios de temperaturas atreves de la banda infrarrojo, la imagen no está escura de noche. No obstante, la niebla y las nubes bajas son apenas visibles en las imágenes infrarrojo como las diferencias de temperaturas entre el suelo y la niebla son muy pequeñas. Por eso son casi invisibles durante la noche. Las imágenes de satélite del Meteosat (Europa) son actualizados en tiempo real cada 5 minutos. Las imágenes del GOES-16/GOES-17 (América del Norte y América del Sur) y Himawari (Asia) son actualizados cada 10 minutos.

La precipitación se estima a partir de radares y satélites. Estimaciones de precipitación de la noche de los satélites son menos precisas que durante el día. Cruces naranjas identifican lugares donde relámpagos fueron detectados (en Europa).

Copyright 2021 EUMETSAT / meteoblue. Datos de relámpagos proporcionados por nowcast.